EW2607 Weather Reports


Display with metric or nautical units.
time (UTC)temp
F
wind
direction
speed
MPH
gust
MPH
rain 1hr
in
rain 24hr
in
rain mn
in
humidity
%
barometer
mb
20180925225736 81 241 3.0 9.0 0.00 0.00 0.00 51 1012.5
20180925225235 80 205 3.0 9.0 0.00 0.00 0.00 51 1012.5
20180925224734 80 266 3.0 8.0 0.00 0.00 0.00 52 1012.5
20180925224234 80 190 4.0 10.0 0.00 0.00 0.00 51 1012.6
20180925223736 80 262 4.0 10.0 0.00 0.00 0.00 51 1012.6
20180925223234 80 180 3.0 7.0 0.00 0.00 0.00 51 1012.6
20180925222735 81 252 3.0 7.0 0.00 0.00 0.00 51 1012.6
20180925222234 80 211 3.0 10.0 0.00 0.00 0.00 51 1012.7
20180925221734 80 303 3.0 10.0 0.00 0.00 0.00 53 1012.7
20180925221234 80 184 3.0 8.0 0.00 0.00 0.00 53 1012.7
20180925220734 80 254 2.0 8.0 0.00 0.00 0.00 52 1012.8
20180925220234 79 202 2.0 8.0 0.00 0.00 0.00 53 1012.8
20180925215732 79 219 4.0 9.0 0.00 0.00 0.00 52 1012.9
20180925215232 80 284 3.0 9.0 0.00 0.00 0.00 52 1013.0
20180925214732 79 231 3.0 8.0 0.00 0.00 0.00 52 1013.0
20180925214231 79 282 3.0 8.0 0.00 0.00 0.00 54 1013.0
20180925213732 79 202 4.0 8.0 0.00 0.00 0.00 52 1013.0
20180925213233 79 205 3.0 8.0 0.00 0.00 0.00 53 1013.1
20180925212730 79 236 3.0 8.0 0.00 0.00 0.00 55 1013.1
20180925212230 78 239 4.0 8.0 0.00 0.00 0.00 55 1013.3
20180925211730 78 217 5.0 9.0 0.00 0.00 0.00 55 1013.3
20180925211230 78 242 5.0 9.0 0.00 0.00 0.00 55 1013.4
20180925210730 78 202 4.0 9.0 0.00 0.00 0.00 55 1013.4
20180925210232 78 218 4.0 8.0 0.00 0.00 0.00 56 1013.3
20180925205730 78 198 4.0 8.0 0.00 0.00 0.00 58 1013.4
20180925205230 78 218 4.0 9.0 0.00 0.00 0.00 58 1013.6
20180925204731 78 219 4.0 9.0 0.00 0.00 0.00 57 1013.6
20180925204230 77 198 3.0 8.0 0.00 0.00 0.00 58 1013.7
20180925203732 78 231 3.0 8.0 0.00 0.00 0.00 57 1013.8
20180925203229 77 223 3.0 8.0 0.00 0.00 0.00 59 1013.8
20180925202728 76 204 2.0 8.0 0.00 0.00 0.00 59 1013.9
20180925202228 76 217 3.0 8.0 0.00 0.00 0.00 61 1014.0
20180925201729 76 222 3.0 8.0 0.00 0.00 0.00 60 1014.1
20180925201226 75 236 3.0 8.0 0.00 0.00 0.00 62 1014.1
20180925200725 75 127 2.0 8.0 0.00 0.00 0.00 62 1014.1
20180925200226 75 195 2.0 6.0 0.00 0.00 0.00 64 1014.1
20180925195724 74 195 3.0 8.0 0.00 0.00 0.00 64 1014.2
20180925195225 74 178 3.0 8.0 0.00 0.00 0.00 63 1014.2
20180925194724 74 242 2.0 5.0 0.00 0.00 0.00 64 1014.1
20180925194221 74 246 2.0 6.0 0.00 0.00 0.00 66 1014.2
20180925193719 73 177 2.0 7.0 0.00 0.00 0.00 67 1014.2
20180925193220 74 230 1.0 7.0 0.00 0.00 0.00 67 1014.3
20180925192716 73 277 0.0 6.0 0.00 0.00 0.00 69 1014.3
20180925192217 72 148 1.0 5.0 0.00 0.00 0.00 69 1014.4
20180925191715 71 175 2.0 6.0 0.00 0.00 0.00 70 1014.4
20180925191216 71 194 1.0 6.0 0.00 0.00 0.00 72 1014.5
20180925190718 71 235 2.0 7.0 0.00 0.00 0.00 72 1014.5
20180925190217 70 186 1.0 7.0 0.00 0.00 0.00 72 1014.5
20180925185714 70 127 1.0 4.0 0.00 0.00 0.00 72 1014.5
20180925185214 70 205 2.0 5.0 0.00 0.00 0.00 73 1014.5
20180925184714 70 288 2.0 5.0 0.00 0.00 0.00 75 1014.5
20180925184214 69 211 1.0 5.0 0.00 0.00 0.00 75 1014.5
20180925183714 69 123 1.0 4.0 0.00 0.00 0.00 79 1014.5
20180925183214 68 227 1.0 4.0 0.00 0.00 0.00 78 1014.6
20180925182713 68 165 1.0 4.0 0.00 0.00 0.00 77 1014.6
20180925182214 68 193 1.0 5.0 0.00 0.00 0.00 80 1014.6
20180925181716 68 202 1.0 5.0 0.00 0.00 0.00 80 1014.7
20180925181213 67 138 1.0 5.0 0.00 0.00 0.00 82 1014.7
20180925180714 66 133 0.0 5.0 0.00 0.00 0.00 83 1014.7
20180925180214 66 195 0.0 2.0 0.00 0.00 0.00 85 1014.7
20180925175714 65 224 0.0 0.0 0.00 0.00 0.00 88 1014.7
20180925175215 64 154 0.0 0.0 0.00 0.00 0.00 90 1014.8
20180925174715 63 159 0.0 0.0 0.00 0.00 0.00 92 1014.7
20180925174213 62 175 0.0 0.0 0.00 0.00 0.00 94 1014.7
20180925173715 62 180 0.0 0.0 0.00 0.00 0.00 94 1014.7
20180925173213 62 223 0.0 0.0 0.00 0.00 0.00 95 1014.8
20180925172712 61 227 0.0 0.0 0.00 0.00 0.00 96 1014.8
20180925172212 61 227 0.0 0.0 0.00 0.00 0.00 96 1014.8
20180925171713 60 173 0.0 0.0 0.00 0.00 0.00 97 1014.7
20180925171211 60 173 0.0 0.0 0.00 0.00 0.00 97 1014.7
20180925170709 60 173 0.0 0.0 0.00 0.00 0.00 96 1014.7
20180925170210 60 173 0.0 0.0 0.00 0.00 0.00 97 1014.7
20180925165707 60 173 0.0 0.0 0.00 0.00 0.00 97 1014.6
20180925165209 60 173 0.0 0.0 0.00 0.00 0.00 97 1014.6
20180925164707 60 173 0.0 0.0 0.00 0.00 0.00 97 1014.7
20180925164207 60 173 0.0 0.0 0.00 0.00 0.00 97 1014.7
20180925163707 60 173 0.0 0.0 0.00 0.00 0.00 97 1014.7
20180925163207 60 173 0.0 0.0 0.00 0.00 0.00 97 1014.6
20180925162707 59 173 0.0 0.0 0.00 0.00 0.00 97 1014.6
20180925162204 59 173 0.0 0.0 0.00 0.00 0.00 97 1014.5
20180925161705 59 183 0.0 0.0 0.00 0.00 0.00 97 1014.4
20180925161204 59 286 0.0 0.0 0.00 0.00 0.00 97 1014.3
20180925160703 59 285 0.0 1.0 0.00 0.00 0.00 97 1014.3
20180925160203 59 212 0.0 2.0 0.00 0.00 0.00 97 1014.2
20180925155702 59 212 0.0 2.0 0.00 0.00 0.00 97 1014.2
20180925155201 59 261 0.0 2.0 0.00 0.00 0.00 97 1014.2
20180925154701 59 273 0.0 2.0 0.00 0.00 0.00 97 1014.2
20180925154202 59 284 0.0 2.0 0.00 0.00 0.00 97 1014.1
20180925153701 58 286 0.0 1.0 0.00 0.00 0.00 97 1014.1
20180925153202 58 285 0.0 1.0 0.00 0.00 0.00 97 1014.1
20180925152701 58 273 0.0 0.0 0.00 0.00 0.00 97 1014.0
20180925152202 58 274 0.0 0.0 0.00 0.00 0.00 97 1014.0
20180925151659 58 232 0.0 0.0 0.00 0.00 0.00 97 1013.9
20180925151201 58 232 0.0 0.0 0.00 0.00 0.00 97 1013.9
20180925150659 58 215 0.0 1.0 0.00 0.00 0.00 97 1013.8
20180925150159 58 209 0.0 1.0 0.00 0.00 0.00 97 1013.7
20180925145701 58 263 0.0 0.0 0.00 0.00 0.00 97 1013.6
20180925145200 57 263 0.0 3.0 0.00 0.00 0.00 97 1013.6
20180925144659 57 263 0.0 3.0 0.00 0.00 0.00 97 1013.6
20180925144200 57 263 0.0 2.0 0.00 0.00 0.00 97 1013.6
20180925143700 56 263 0.0 0.0 0.00 0.00 0.00 97 1013.5
20180925143200 56 263 0.0 0.0 0.00 0.00 0.00 97 1013.4
20180925142659 56 263 0.0 0.0 0.00 0.00 0.00 97 1013.4
20180925142159 55 263 0.0 0.0 0.00 0.00 0.00 97 1013.4
20180925141658 55 263 0.0 0.0 0.00 0.00 0.00 97 1013.3
20180925141158 55 263 0.0 0.0 0.00 0.00 0.00 96 1013.0
20180925140657 54 263 0.0 0.0 0.00 0.00 0.00 96 1013.0
20180925140159 54 263 0.0 0.0 0.00 0.00 0.00 96 1012.8
20180925135657 54 263 0.0 0.0 0.00 0.00 0.00 96 1012.7
20180925135157 55 263 0.0 0.0 0.00 0.00 0.00 96 1012.6
20180925134657 54 263 0.0 0.0 0.00 0.00 0.00 96 1012.6
20180925134159 54 263 0.0 0.0 0.00 0.00 0.00 96 1012.6
20180925133657 54 263 0.0 0.0 0.00 0.00 0.00 96 1012.6
20180925133157 54 263 0.0 0.0 0.00 0.00 0.00 96 1012.7
20180925132656 54 263 0.0 0.0 0.00 0.00 0.00 95 1012.6
20180925132155 55 263 0.0 0.0 0.00 0.00 0.00 96 1012.6
20180925131655 55 263 0.0 0.0 0.00 0.00 0.00 96 1012.5
20180925131155 55 263 0.0 0.0 0.00 0.00 0.00 96 1012.4
20180925130657 55 263 0.0 0.0 0.00 0.00 0.00 96 1012.3
20180925130157 55 263 0.0 0.0 0.00 0.00 0.00 96 1012.3
20180925125657 55 263 0.0 0.0 0.00 0.00 0.00 95 1012.2
20180925125157 55 263 0.0 0.0 0.00 0.00 0.00 96 1012.1
20180925124653 55 263 0.0 0.0 0.00 0.00 0.00 96 1012.1
20180925124154 55 263 0.0 0.0 0.00 0.00 0.00 96 1012.1
20180925123655 55 263 0.0 0.0 0.00 0.00 0.00 96 1012.1
20180925123151 55 263 0.0 0.0 0.00 0.00 0.00 96 1012.0
20180925122651 55 263 0.0 0.0 0.00 0.00 0.00 95 1012.1
20180925122150 55 263 0.0 0.0 0.00 0.00 0.00 96 1012.1
20180925121651 55 263 0.0 0.0 0.00 0.00 0.00 95 1012.2
20180925121151 55 263 0.0 0.0 0.00 0.00 0.00 95 1012.1
20180925120651 55 263 0.0 0.0 0.00 0.00 0.00 95 1012.0
20180925120150 55 263 0.0 0.0 0.00 0.00 0.00 95 1012.0
20180925115649 55 263 0.0 0.0 0.00 0.00 0.00 96 1012.0
20180925115150 55 263 0.0 0.0 0.00 0.00 0.00 95 1012.1
20180925114650 55 263 0.0 0.0 0.00 0.00 0.00 95 1012.1
20180925114147 55 263 0.0 0.0 0.00 0.00 0.00 95 1012.2
20180925113646 55 263 0.0 0.0 0.00 0.00 0.00 95 1012.1
20180925113145 55 263 0.0 0.0 0.00 0.00 0.00 95 1012.2
20180925112645 55 263 0.0 0.0 0.00 0.00 0.00 95 1012.2
20180925112147 55 263 0.0 0.0 0.00 0.00 0.00 95 1012.2
20180925111645 55 263 0.0 0.0 0.00 0.00 0.00 95 1012.1
20180925111142 55 263 0.0 0.0 0.00 0.00 0.00 95 1012.1
20180925110643 56 263 0.0 0.0 0.00 0.00 0.00 95 1012.0
20180925110143 56 263 0.0 0.0 0.00 0.00 0.00 95 1012.0
20180925105643 56 263 0.0 0.0 0.00 0.00 0.00 95 1012.1
20180925105140 56 263 0.0 0.0 0.00 0.00 0.00 95 1012.1
20180925104642 56 263 0.0 0.0 0.00 0.00 0.00 95 1012.1
20180925104141 56 263 0.0 0.0 0.00 0.00 0.00 95 1012.1
20180925103641 56 263 0.0 0.0 0.00 0.00 0.00 95 1012.1
20180925103140 56 263 0.0 0.0 0.00 0.00 0.00 95 1012.0
20180925102643 56 263 0.0 0.0 0.00 0.00 0.00 95 1012.0
20180925102141 56 263 0.0 0.0 0.00 0.00 0.00 94 1012.0
20180925101641 56 263 0.0 0.0 0.00 0.00 0.00 94 1011.9
20180925101141 56 263 0.0 0.0 0.00 0.00 0.00 95 1011.8
20180925100641 56 263 0.0 0.0 0.00 0.00 0.00 95 1011.9
20180925100141 56 263 0.0 0.0 0.00 0.00 0.00 95 1012.0
20180925095642 56 263 0.0 0.0 0.00 0.00 0.00 95 1012.0
20180925095141 56 263 0.0 0.0 0.00 0.00 0.00 95 1012.1
20180925094641 56 263 0.0 0.0 0.00 0.00 0.00 95 1012.2
20180925094140 56 263 0.0 0.0 0.00 0.00 0.00 95 1012.3
20180925093643 56 263 0.0 0.0 0.00 0.00 0.00 95 1012.3
20180925093140 56 263 0.0 0.0 0.00 0.00 0.00 94 1012.4
20180925092639 56 263 0.0 0.0 0.00 0.00 0.00 94 1012.4
20180925092137 56 263 0.0 0.0 0.00 0.00 0.00 94 1012.4
20180925091635 56 263 0.0 0.0 0.00 0.00 0.00 94 1012.4
20180925091136 56 263 0.0 0.0 0.00 0.00 0.00 94 1012.4
20180925090637 56 263 0.0 0.0 0.00 0.00 0.00 94 1012.4
20180925090135 56 263 0.0 0.0 0.00 0.00 0.00 94 1012.4
20180925085635 56 263 0.0 0.0 0.00 0.00 0.00 94 1012.3
20180925085134 56 263 0.0 0.0 0.00 0.00 0.00 94 1012.3
20180925084636 56 263 0.0 0.0 0.00 0.00 0.00 94 1012.2
20180925084134 56 263 0.0 0.0 0.00 0.00 0.00 94 1012.3
20180925083635 56 263 0.0 0.0 0.00 0.00 0.00 94 1012.3
20180925083132 56 263 0.0 0.0 0.00 0.00 0.00 94 1012.3
20180925082634 57 263 0.0 0.0 0.00 0.00 0.00 94 1012.3
20180925082133 57 263 0.0 0.0 0.00 0.00 0.00 94 1012.4
20180925081632 57 263 0.0 0.0 0.00 0.00 0.00 94 1012.4
20180925081132 57 263 0.0 0.0 0.00 0.00 0.00 93 1012.5
20180925080632 57 263 0.0 0.0 0.00 0.00 0.00 94 1012.4
20180925080132 57 263 0.0 0.0 0.00 0.00 0.00 94 1012.5
20180925075635 57 263 0.0 0.0 0.00 0.00 0.00 94 1012.5
20180925075134 57 263 0.0 0.0 0.00 0.00 0.00 93 1012.5
20180925074632 57 263 0.0 0.0 0.00 0.00 0.00 94 1012.5
20180925074133 57 263 0.0 0.0 0.00 0.00 0.00 94 1012.6
20180925073632 57 263 0.0 0.0 0.00 0.00 0.00 93 1012.6
20180925073130 58 263 0.0 0.0 0.00 0.00 0.00 93 1012.6
20180925072630 58 263 0.0 0.0 0.00 0.00 0.00 93 1012.6
20180925072130 58 263 0.0 0.0 0.00 0.00 0.00 93 1012.5
20180925071630 58 263 0.0 0.0 0.00 0.00 0.00 93 1012.6
20180925071132 58 263 0.0 0.0 0.00 0.00 0.00 93 1012.6
20180925070632 58 263 0.0 0.0 0.00 0.00 0.00 93 1012.6
20180925070130 58 263 0.0 0.0 0.00 0.00 0.00 92 1012.6
20180925065629 58 263 0.0 0.0 0.00 0.00 0.00 93 1012.6
20180925065128 58 263 0.0 0.0 0.00 0.00 0.00 92 1012.6
20180925064629 58 263 0.0 0.0 0.00 0.00 0.00 92 1012.6
20180925064128 58 263 0.0 0.0 0.00 0.00 0.00 92 1012.6
20180925063629 58 263 0.0 0.0 0.00 0.00 0.00 92 1012.6
20180925063129 58 263 0.0 0.0 0.00 0.00 0.00 92 1012.5
20180925062629 58 263 0.0 0.0 0.00 0.00 0.00 91 1012.5
20180925062128 59 263 0.0 0.0 0.00 0.00 0.00 92 1012.5
20180925061630 59 263 0.0 0.0 0.00 0.00 0.00 91 1012.5
20180925061127 59 263 0.0 0.0 0.00 0.00 0.00 91 1012.4
20180925060630 59 263 0.0 0.0 0.00 0.00 0.00 91 1012.4
20180925060129 59 263 0.0 0.0 0.00 0.00 0.00 91 1012.4
20180925055629 59 263 0.0 0.0 0.00 0.00 0.00 91 1012.3
20180925055128 59 263 0.0 0.0 0.00 0.00 0.00 90 1012.3
20180925054629 59 263 0.0 0.0 0.00 0.00 0.00 90 1012.3
20180925054128 59 263 0.0 0.0 0.00 0.00 0.00 90 1012.3
20180925053629 60 263 0.0 0.0 0.00 0.00 0.00 90 1012.4
20180925053127 60 263 0.0 0.0 0.00 0.00 0.00 89 1012.4
20180925052629 60 263 0.0 0.0 0.00 0.00 0.00 89 1012.4
20180925052129 60 263 0.0 0.0 0.00 0.00 0.00 89 1012.4
20180925051628 60 263 0.0 1.0 0.00 0.00 0.00 89 1012.4
20180925051128 60 263 0.0 1.0 0.00 0.00 0.00 89 1012.4
20180925050628 60 263 0.0 0.0 0.00 0.00 0.00 88 1012.4
20180925050129 60 263 0.0 3.0 0.00 0.00 0.00 88 1012.4
20180925045629 61 263 0.0 3.0 0.00 0.00 0.00 88 1012.4
20180925045129 61 263 0.0 3.0 0.00 0.00 0.00 87 1012.4
20180925044627 61 253 0.0 3.0 0.00 0.00 0.00 87 1012.5
20180925044124 61 279 0.0 3.0 0.00 0.00 0.00 87 1012.4
20180925043623 61 266 1.0 4.0 0.00 0.00 0.00 87 1012.4
20180925043122 61 254 1.0 4.0 0.00 0.00 0.00 86 1012.4
20180925042621 62 261 0.0 5.0 0.00 0.00 0.00 86 1012.4
20180925042121 62 255 1.0 6.0 0.00 0.00 0.00 86 1012.3
20180925041621 62 271 1.0 6.0 0.00 0.00 0.00 85 1012.3
20180925041122 62 274 1.0 6.0 0.00 0.00 0.00 85 1012.3
20180925040621 62 238 1.0 3.0 0.00 0.00 0.00 85 1012.2
20180925040123 62 248 1.0 7.0 0.00 0.00 0.00 84 1012.2
20180925035623 62 246 1.0 7.0 0.00 0.00 0.00 84 1012.1
20180925035122 62 265 1.0 4.0 0.00 0.00 0.00 84 1012.1
20180925034621 63 271 1.0 4.0 0.00 0.00 0.00 83 1012.1
20180925034120 63 245 2.0 8.0 0.00 0.00 0.00 83 1012.0
20180925033621 63 267 2.0 8.0 0.00 0.00 0.00 83 1012.0
20180925033120 63 279 1.0 7.0 0.00 0.00 0.00 82 1012.0
20180925032621 63 240 1.0 6.0 0.00 0.00 0.00 82 1011.9
20180925032120 63 263 1.0 11.0 0.00 0.00 0.00 82 1012.0
20180925031621 64 323 2.0 11.0 0.00 0.00 0.00 81 1012.0
20180925031120 64 242 2.0 8.0 0.00 0.00 0.00 81 1011.9
20180925030619 64 273 3.0 10.0 0.00 0.00 0.00 80 1011.8
20180925030121 64 258 3.0 10.0 0.00 0.00 0.00 80 1011.7
20180925025617 65 261 3.0 12.0 0.00 0.00 0.00 79 1011.7
20180925025119 65 238 5.0 13.0 0.00 0.00 0.00 79 1011.7
20180925024617 65 279 4.0 13.0 0.00 0.00 0.00 78 1011.6
20180925024118 65 254 3.0 13.0 0.00 0.00 0.00 78 1011.5
20180925023617 65 241 4.0 13.0 0.00 0.00 0.00 77 1011.5
20180925023117 66 221 6.0 14.0 0.00 0.00 0.00 77 1011.5
20180925022617 66 258 7.0 14.0 0.00 0.00 0.00 76 1011.5
20180925022118 66 289 6.0 14.0 0.00 0.00 0.00 75 1011.5
20180925021618 67 292 6.0 12.0 0.00 0.00 0.00 75 1011.4
20180925021118 67 230 5.0 11.0 0.00 0.00 0.00 74 1011.4
20180925020615 67 238 4.0 11.0 0.00 0.00 0.00 74 1011.4
20180925020116 67 259 4.0 12.0 0.00 0.00 0.00 73 1011.2
20180925015615 68 246 6.0 15.0 0.00 0.00 0.00 72 1011.2
20180925015114 68 196 4.0 15.0 0.00 0.00 0.00 71 1011.1
20180925014613 69 255 4.0 11.0 0.00 0.00 0.00 70 1011.1
20180925014114 69 237 4.0 11.0 0.00 0.00 0.00 70 1011.1
20180925013613 69 242 4.0 11.0 0.00 0.00 0.00 69 1011.1
20180925013112 70 235 3.0 11.0 0.00 0.00 0.00 68 1011.0
20180925012613 70 250 3.0 12.0 0.00 0.00 0.00 67 1011.0
20180925012110 70 258 3.0 14.0 0.00 0.00 0.00 67 1011.0
20180925011613 71 259 3.0 14.0 0.00 0.00 0.00 66 1011.0
20180925011113 71 236 3.0 12.0 0.00 0.00 0.00 66 1010.9
20180925010611 71 229 4.0 12.0 0.00 0.00 0.00 64 1010.9
20180925010111 72 249 4.0 10.0 0.00 0.00 0.00 64 1010.9
20180925005612 73 300 3.0 10.0 0.00 0.00 0.00 63 1010.8
20180925005111 73 261 3.0 11.0 0.00 0.00 0.00 62 1010.6
20180925004611 73 253 3.0 11.0 0.00 0.00 0.00 61 1010.6
20180925004111 74 256 4.0 10.0 0.00 0.00 0.00 60 1010.5
20180925003611 74 253 4.0 11.0 0.00 0.00 0.00 59 1010.5
20180925003111 75 267 5.0 11.0 0.00 0.00 0.00 57 1010.4
20180925002613 76 200 5.0 14.0 0.00 0.00 0.00 56 1010.4
20180925002113 76 244 6.0 14.0 0.00 0.00 0.00 55 1010.4
20180925001610 77 279 5.0 14.0 0.00 0.00 0.00 54 1010.4
20180925001111 77 238 4.0 11.0 0.00 0.00 0.00 55 1010.5
20180925000611 78 199 5.0 15.0 0.00 0.00 0.00 54 1010.5
20180925000111 78 262 6.0 15.0 0.00 0.00 0.00 53 1010.6
20180924235612 78 250 6.0 15.0 0.00 0.00 0.00 52 1010.6
20180924235110 79 253 6.0 14.0 0.00 0.00 0.00 52 1010.6
20180924234613 79 251 4.0 14.0 0.00 0.00 0.00 51 1010.6
20180924234112 79 295 4.0 11.0 0.00 0.00 0.00 50 1010.4
20180924233610 80 292 4.0 11.0 0.00 0.00 0.00 49 1010.4
20180924233108 80 242 4.0 16.0 0.00 0.00 0.00 49 1010.4
20180924232607 80 215 4.0 16.0 0.00 0.00 0.00 49 1010.4
20180924232107 80 269 5.0 16.0 0.00 0.00 0.00 49 1010.5
20180924231606 80 236 5.0 16.0 0.00 0.00 0.00 48 1010.5
20180924231106 80 188 5.0 15.0 0.00 0.00 0.00 48 1010.4
20180924230605 80 234 6.0 15.0 0.00 0.00 0.00 48 1010.4